Location: Lhota
(50.0887°N, 14.0116°E)
Time: 01:14:03
(UTC+00:00)

Cosmos 2333 Rocket - Pass Details

Date: 19 May 2025
Orbit: 840 x 862 km, 70.8° (Epoch: 23 June)

Event Time Altitude Azimuth Distance (km) Brightness Sun altitude
Rises 22:04:26 0° 331° (NNW) 3,442 6.8 -18.8°
Reaches altitude 10° 22:06:57 10° 335° (NNW) 2,499 5.8 -18.9°
Maximum altitude 22:12:38 59° 56° (NE) 979 2.6 -19.1°
Enters shadow 22:15:53 25° 127° (SE) 1,642 3.3 -19.2°
